Tracking 35275 objects as of 8-Sep-2026
HD Live streaming from Space Station
objects crossing your sky now

STARLINK-3508

Track STARLINK-3508 now!
10-day predictions
STARLINK-3508 is classified as:


NORAD ID: 51862
Int'l Code: 2022-022L
Launch date: March 3, 2022
Source: United States (US)
Launch site: AIR FORCE EASTERN TEST RANGE (AFETR)
Your satellite tracking list
Your tracking list is empty




NASA's NSSDC Master Catalog

Two Line Element Set (TLE):
1 51862U 22022L   26251.22210287  .00000442  00000-0  24231-4 0  9996
2 51862  53.1583 260.7636 0001206  80.0357 280.0781 15.34386533250847
Source of the keplerian elements: AFSPC